International Skating Union - Official Site

ESSENT ISU WORLD DISTANCES CHAMPIONSHIPS 2012
March 22-25, 2012

Draw | Lap Times | Index | Classification

Referee: Erik  ØSMUNDSET  (NOR)
Starter: Luigi  CASAL  (ITA)
StartTime: EndTime: Air Temp: Ice Temp: Humidity:
12:52 15:54
Result 10000m Men
Rankings as of Mar 24 2012 4:38PM
Rank: No.: Name: Nation: Time: Behind: Points:
1 43 Bob  de JONG NED NED 12:53.91400m - 35.41 - (35.4)
800m - 1:06.32 - (30.9)
1200m - 1:37.51 - (31.1)
1600m - 2:08.63 - (31.1)
2000m - 2:39.46 - (30.8)
2400m - 3:10.41 - (30.9)
2800m - 3:41.33 - (30.9)
3200m - 4:12.37 - (31.0)
3600m - 4:43.40 - (31.0)
4000m - 5:14.62 - (31.2)
4400m - 5:45.70 - (31.0)
4800m - 6:16.69 - (30.9)
5200m - 6:47.47 - (30.7)
5600m - 7:18.49 - (31.0)
6000m - 7:49.30 - (30.8)
6400m - 8:20.21 - (30.9)
6800m - 8:50.86 - (30.6)
7200m - 9:21.44 - (30.5)
7600m - 9:51.98 - (30.5)
8000m - 10:22.65 - (30.6)
8400m - 10:53.07 - (30.4)
8800m - 11:23.43 - (30.3)
9200m - 11:53.65 - (30.2)
9600m - 12:23.95 - (30.2)
10000m - 12:53.91 - (29.9)
38.695
2 40 Jorrit  BERGSMA NED NED 12:57.71400m - 35.77 - (35.7)
800m - 1:06.47 - (30.7)
1200m - 1:37.37 - (30.9)
1600m - 2:08.11 - (30.7)
2000m - 2:39.02 - (30.9)
2400m - 3:09.83 - (30.8)
2800m - 3:40.56 - (30.7)
3200m - 4:11.45 - (30.8)
3600m - 4:42.32 - (30.8)
4000m - 5:13.00 - (30.6)
4400m - 5:43.66 - (30.6)
4800m - 6:14.25 - (30.5)
5200m - 6:44.75 - (30.5)
5600m - 7:15.23 - (30.4)
6000m - 7:45.70 - (30.4)
6400m - 8:16.12 - (30.4)
6800m - 8:46.69 - (30.5)
7200m - 9:17.48 - (30.7)
7600m - 9:48.26 - (30.7)
8000m - 10:19.19 - (30.9)
8400m - 10:50.20 - (31.0)
8800m - 11:21.43 - (31.2)
9200m - 11:53.16 - (31.7)
9600m - 12:25.22 - (32.0)
10000m - 12:57.71 - (32.4)
3.80 38.885
3 78 Jonathan  KUCK USA USA 13:12.66400m - 35.70 - (35.7)
800m - 1:07.12 - (31.4)
1200m - 1:38.10 - (30.9)
1600m - 2:09.10 - (31.0)
2000m - 2:40.18 - (31.0)
2400m - 3:11.62 - (31.4)
2800m - 3:42.89 - (31.2)
3200m - 4:14.05 - (31.1)
3600m - 4:45.38 - (31.3)
4000m - 5:16.87 - (31.4)
4400m - 5:48.61 - (31.7)
4800m - 6:20.13 - (31.5)
5200m - 6:52.11 - (31.9)
5600m - 7:24.36 - (32.2)
6000m - 7:56.32 - (31.9)
6400m - 8:28.23 - (31.9)
6800m - 9:00.13 - (31.9)
7200m - 9:31.94 - (31.8)
7600m - 10:03.40 - (31.4)
8000m - 10:34.98 - (31.5)
8400m - 11:06.65 - (31.6)
8800m - 11:38.28 - (31.6)
9200m - 12:09.84 - (31.5)
9600m - 12:41.24 - (31.4)
10000m - 13:12.66 - (31.4)
18.75 39.633
4 21 Moritz  GEISREITER GER GER 13:21.10400m - 35.54 - (35.5)
800m - 1:06.63 - (31.0)
1200m - 1:38.24 - (31.6)
1600m - 2:10.34 - (32.1)
2000m - 2:42.20 - (31.8)
2400m - 3:14.34 - (32.1)
2800m - 3:46.12 - (31.7)
3200m - 4:18.10 - (31.9)
3600m - 4:49.86 - (31.7)
4000m - 5:22.13 - (32.2)
4400m - 5:54.12 - (31.9)
4800m - 6:26.33 - (32.2)
5200m - 6:58.46 - (32.1)
5600m - 7:30.50 - (32.0)
6000m - 8:02.62 - (32.1)
6400m - 8:34.75 - (32.1)
6800m - 9:05.95 - (31.2)
7200m - 9:37.18 - (31.2)
7600m - 10:08.69 - (31.5)
8000m - 10:40.45 - (31.7)
8400m - 11:12.34 - (31.8)
8800m - 11:44.42 - (32.0)
9200m - 12:16.57 - (32.1)
9600m - 12:48.98 - (32.4)
10000m - 13:21.10 - (32.1)
27.19 40.055
5 54 Håvard  BØKKO NOR NOR 13:23.70400m - 34.62 - (34.6)
800m - 1:05.67 - (31.0)
1200m - 1:37.66 - (31.9)
1600m - 2:09.00 - (31.3)
2000m - 2:40.39 - (31.3)
2400m - 3:12.16 - (31.7)
2800m - 3:43.98 - (31.8)
3200m - 4:15.76 - (31.7)
3600m - 4:47.68 - (31.9)
4000m - 5:19.71 - (32.0)
4400m - 5:51.87 - (32.1)
4800m - 6:24.11 - (32.2)
5200m - 6:56.24 - (32.1)
5600m - 7:28.51 - (32.2)
6000m - 8:00.48 - (31.9)
6400m - 8:32.61 - (32.1)
6800m - 9:05.13 - (32.5)
7200m - 9:37.66 - (32.5)
7600m - 10:10.02 - (32.3)
8000m - 10:42.57 - (32.5)
8400m - 11:15.07 - (32.5)
8800m - 11:47.32 - (32.2)
9200m - 12:19.39 - (32.0)
9600m - 12:51.09 - (31.7)
10000m - 13:23.70 - (32.6)
29.79 40.185
6 52 Bob  de VRIES NED NED 13:25.74400m - 35.44 - (35.4)
800m - 1:07.14 - (31.7)
1200m - 1:38.56 - (31.4)
1600m - 2:09.56 - (31.0)
2000m - 2:40.59 - (31.0)
2400m - 3:11.81 - (31.2)
2800m - 3:42.95 - (31.1)
3200m - 4:14.24 - (31.2)
3600m - 4:45.69 - (31.4)
4000m - 5:17.12 - (31.4)
4400m - 5:48.72 - (31.6)
4800m - 6:20.81 - (32.0)
5200m - 6:53.10 - (32.2)
5600m - 7:25.39 - (32.2)
6000m - 7:57.72 - (32.3)
6400m - 8:30.17 - (32.4)
6800m - 9:02.69 - (32.5)
7200m - 9:35.79 - (33.1)
7600m - 10:08.82 - (33.0)
8000m - 10:41.53 - (32.7)
8400m - 11:14.27 - (32.7)
8800m - 11:47.40 - (33.1)
9200m - 12:20.15 - (32.7)
9600m - 12:52.88 - (32.7)
10000m - 13:25.74 - (32.8)
31.83 40.287
7 25 Marco  WEBER GER GER 13:28.44400m - 35.72 - (35.7)
800m - 1:07.23 - (31.5)
1200m - 1:38.81 - (31.5)
1600m - 2:10.41 - (31.5)
2000m - 2:41.90 - (31.4)
2400m - 3:13.55 - (31.6)
2800m - 3:45.09 - (31.5)
3200m - 4:16.83 - (31.7)
3600m - 4:48.59 - (31.7)
4000m - 5:20.55 - (31.9)
4400m - 5:52.39 - (31.8)
4800m - 6:24.48 - (32.1)
5200m - 6:56.71 - (32.2)
5600m - 7:28.98 - (32.2)
6000m - 8:01.35 - (32.3)
6400m - 8:34.03 - (32.6)
6800m - 9:06.49 - (32.4)
7200m - 9:39.09 - (32.6)
7600m - 10:11.96 - (32.8)
8000m - 10:44.72 - (32.7)
8400m - 11:17.56 - (32.8)
8800m - 11:50.31 - (32.7)
9200m - 12:23.18 - (32.8)
9600m - 12:56.09 - (32.9)
10000m - 13:28.44 - (32.3)
34.53 40.422
8 60 Shane  DOBBIN NZL NZL 13:28.84400m - 36.15 - (36.1)
800m - 1:07.44 - (31.3)
1200m - 1:39.58 - (32.1)
1600m - 2:11.94 - (32.3)
2000m - 2:44.09 - (32.1)
2400m - 3:16.77 - (32.6)
2800m - 3:49.29 - (32.5)
3200m - 4:21.47 - (32.1)
3600m - 4:53.92 - (32.4)
4000m - 5:26.16 - (32.2)
4400m - 5:58.32 - (32.1)
4800m - 6:30.40 - (32.0)
5200m - 7:02.37 - (31.9)
5600m - 7:34.42 - (32.0)
6000m - 8:06.63 - (32.2)
6400m - 8:38.69 - (32.0)
6800m - 9:10.88 - (32.1)
7200m - 9:43.08 - (32.1)
7600m - 10:15.46 - (32.3)
8000m - 10:47.44 - (31.9)
8400m - 11:19.84 - (32.4)
8800m - 11:52.12 - (32.2)
9200m - 12:24.33 - (32.2)
9600m - 12:56.54 - (32.2)
10000m - 13:28.84 - (32.3)
34.93 40.442
9 19 Alexej  BAUMGÄRTNER GER GER 13:29.02400m - 35.84 - (35.8)
800m - 1:06.81 - (30.9)
1200m - 1:38.76 - (31.9)
1600m - 2:10.36 - (31.6)
2000m - 2:42.24 - (31.8)
2400m - 3:13.90 - (31.6)
2800m - 3:46.02 - (32.1)
3200m - 4:17.95 - (31.9)
3600m - 4:49.99 - (32.0)
4000m - 5:21.87 - (31.8)
4400m - 5:54.18 - (32.3)
4800m - 6:26.25 - (32.0)
5200m - 6:58.52 - (32.2)
5600m - 7:30.62 - (32.1)
6000m - 8:02.83 - (32.2)
6400m - 8:34.82 - (31.9)
6800m - 9:07.34 - (32.5)
7200m - 9:39.55 - (32.2)
7600m - 10:11.89 - (32.3)
8000m - 10:44.27 - (32.3)
8400m - 11:16.93 - (32.6)
8800m - 11:49.69 - (32.7)
9200m - 12:22.79 - (33.0)
9600m - 12:55.92 - (33.1)
10000m - 13:29.02 - (33.1)
35.11 40.451
10 16 Alexis  CONTIN FRA FRA 13:29.92400m - 35.64 - (35.6)
800m - 1:08.02 - (32.3)
1200m - 1:40.66 - (32.6)
1600m - 2:12.31 - (31.6)
2000m - 2:44.47 - (32.1)
2400m - 3:16.14 - (31.6)
2800m - 3:48.09 - (31.9)
3200m - 4:20.26 - (32.1)
3600m - 4:52.70 - (32.4)
4000m - 5:25.52 - (32.8)
4400m - 5:58.43 - (32.9)
4800m - 6:30.38 - (31.9)
5200m - 7:02.96 - (32.5)
5600m - 7:35.08 - (32.1)
6000m - 8:07.60 - (32.5)
6400m - 8:39.72 - (32.1)
6800m - 9:12.53 - (32.8)
7200m - 9:44.58 - (32.0)
7600m - 10:16.90 - (32.3)
8000m - 10:48.59 - (31.7)
8400m - 11:20.20 - (31.6)
8800m - 11:52.31 - (32.1)
9200m - 12:24.82 - (32.5)
9600m - 12:57.24 - (32.4)
10000m - 13:29.92 - (32.6)
36.01 40.496
11 27 Hiroki  HIRAKO JPN JPN 13:31.99400m - 34.75 - (34.7)
800m - 1:06.50 - (31.7)
1200m - 1:38.80 - (32.3)
1600m - 2:11.51 - (32.7)
2000m - 2:44.08 - (32.5)
2400m - 3:16.73 - (32.6)
2800m - 3:49.18 - (32.4)
3200m - 4:21.69 - (32.5)
3600m - 4:54.29 - (32.5)
4000m - 5:26.91 - (32.6)
4400m - 5:59.18 - (32.2)
4800m - 6:31.69 - (32.5)
5200m - 7:04.43 - (32.7)
5600m - 7:37.23 - (32.8)
6000m - 8:09.86 - (32.6)
6400m - 8:42.70 - (32.8)
6800m - 9:15.42 - (32.7)
7200m - 9:48.28 - (32.8)
7600m - 10:20.85 - (32.5)
8000m - 10:53.36 - (32.5)
8400m - 11:25.67 - (32.3)
8800m - 11:57.65 - (31.9)
9200m - 12:29.24 - (31.5)
9600m - 13:00.74 - (31.5)
10000m - 13:31.99 - (31.2)
38.08 40.599
12 31 Dmitry  BABENKO KAZ KAZ 13:35.72400m - 35.25 - (35.2)
800m - 1:07.79 - (32.5)
1200m - 1:40.17 - (32.3)
1600m - 2:12.27 - (32.1)
2000m - 2:44.30 - (32.0)
2400m - 3:15.86 - (31.5)
2800m - 3:47.70 - (31.8)
3200m - 4:19.82 - (32.1)
3600m - 4:52.10 - (32.2)
4000m - 5:24.68 - (32.5)
4400m - 5:56.96 - (32.2)
4800m - 6:29.40 - (32.4)
5200m - 7:02.27 - (32.8)
5600m - 7:35.01 - (32.7)
6000m - 8:08.21 - (33.2)
6400m - 8:41.37 - (33.1)
6800m - 9:14.89 - (33.5)
7200m - 9:48.13 - (33.2)
7600m - 10:21.84 - (33.7)
8000m - 10:55.11 - (33.2)
8400m - 11:28.52 - (33.4)
8800m - 12:01.48 - (32.9)
9200m - 12:33.66 - (32.1)
9600m - 13:04.74 - (31.0)
10000m - 13:35.72 - (30.9)
41.81 40.786
13 4 Jordan  BELCHOS CAN CAN 13:36.59400m - 34.93 - (34.9)
800m - 1:05.82 - (30.8)
1200m - 1:37.11 - (31.2)
1600m - 2:08.36 - (31.2)
2000m - 2:39.64 - (31.2)
2400m - 3:10.85 - (31.2)
2800m - 3:42.33 - (31.4)
3200m - 4:14.13 - (31.8)
3600m - 4:46.02 - (31.8)
4000m - 5:18.27 - (32.2)
4400m - 5:50.70 - (32.4)
4800m - 6:23.20 - (32.5)
5200m - 6:55.89 - (32.6)
5600m - 7:28.76 - (32.8)
6000m - 8:01.75 - (32.9)
6400m - 8:34.95 - (33.2)
6800m - 9:08.24 - (33.2)
7200m - 9:41.87 - (33.6)
7600m - 10:15.40 - (33.5)
8000m - 10:49.16 - (33.7)
8400m - 11:22.95 - (33.7)
8800m - 11:57.00 - (34.0)
9200m - 12:30.79 - (33.7)
9600m - 13:04.12 - (33.3)
10000m - 13:36.59 - (32.4)
42.68 40.829
14 74 Roger  SCHNEIDER SUI SUI 13:50.11400m - 36.10 - (36.1)
800m - 1:07.46 - (31.3)
1200m - 1:39.71 - (32.2)
1600m - 2:11.88 - (32.1)
2000m - 2:44.54 - (32.6)
2400m - 3:17.29 - (32.7)
2800m - 3:49.82 - (32.5)
3200m - 4:22.48 - (32.6)
3600m - 4:55.43 - (32.9)
4000m - 5:28.17 - (32.7)
4400m - 6:01.10 - (32.9)
4800m - 6:34.33 - (33.2)
5200m - 7:07.26 - (32.9)
5600m - 7:40.41 - (33.1)
6000m - 8:13.66 - (33.2)
6400m - 8:46.55 - (32.8)
6800m - 9:19.68 - (33.1)
7200m - 9:53.10 - (33.4)
7600m - 10:26.82 - (33.7)
8000m - 11:00.27 - (33.4)
8400m - 11:34.39 - (34.1)
8800m - 12:08.48 - (34.0)
9200m - 12:42.41 - (33.9)
9600m - 13:16.43 - (34.0)
10000m - 13:50.11 - (33.6)
56.20 41.505
15 3 Bart  SWINGS BEL BEL DNF400m - 35.83 - (35.8)
800m - 1:08.25 - (32.4)
1200m - 1:40.85 - (32.6)
1600m - 2:13.35 - (32.5)
2000m - 2:45.16 - (31.8)
2400m - 3:17.22 - (32.0)
2800m - 3:49.23 - (32.0)
3200m - 4:21.35 - (32.1)
3600m - 4:53.60 - (32.2)
4000m - 5:26.30 - (32.7)
4400m - 5:58.93 - (32.6)
4800m - 6:31.19 - (32.2)
5200m - 7:03.35 - (32.1)
5600m - 7:35.65 - (32.3)
6000m - 8:08.10 - (32.4)
6400m - 8:40.47 - (32.3)
6800m - 9:12.83 - (32.3)
7200m - 9:45.17 - (32.3)
7600m - 10:17.43 - (32.2)
8000m - 10:49.49 - (32.0)
8400m - 11:21.46 - (31.9)
-